Atlas — SV6729 — position and weather

sailwx.info

Track history (hours):
 
Tides and Currents Weather Stations Pressure Air Temp Water Temp Dewpoint Dewpoint Depression Visibility Wind Speed Wind Dir Waves Ship Positions

Atlas

Last reported at 2014-Jul-29 19:18 UTC. Time now 2014-Jul-30 01:00 UTC.
Position N 37°57' E 023°36'.

Length 29 m; draft 5 m.

Type: Tug. MMSI: 239611000.

Date/timePositionNaut miles runAvg speedWind from/ knotsBaromVisibWave heightAir tempDewpointWater temp
2014-Jul-29 19:18N 37°57' E 023°36'5 6.8
2014-Jul-29 18:33N 38°01' E 023°31'10 4.9
2014-Jul-29 16:26N 37°55' E 023°20'1 0.7
2014-Jul-29 15:12N 37°54' E 023°20'0 0.4
2014-Jul-29 14:19N 37°54' E 023°20'0 0.4
2014-Jul-29 13:19N 37°54' E 023°19'0 0.3
2014-Jul-29 12:29N 37°54' E 023°19'7 7.0
2014-Jul-29 11:32N 37°58' E 023°26'5 5.3
2014-Jul-29 10:33N 38°02' E 023°30'6 0.4
2014-Jul-28 17:30N 37°57' E 023°35'1 0.1
2014-Jul-28 06:33N 37°57' E 023°37'0 0.0
2014-Jul-28 05:33N 37°57' E 023°37'0 0.4
2014-Jul-28 04:33N 37°58' E 023°36'0 0.0
2014-Jul-27 07:23N 37°57' E 023°36'7 0.5
2014-Jul-26 17:33N 38°02' E 023°30'6 5.7
2014-Jul-26 16:33N 37°58' E 023°25'10 8.5
2014-Jul-26 15:26N 37°51' E 023°16'1 0.6
2014-Jul-26 14:33N 37°51' E 023°16'1 1.1
2014-Jul-26 13:32N 37°51' E 023°17'1 0.7
2014-Jul-26 12:22N 37°51' E 023°16'2 1.9
2014-Jul-26 11:33N 37°50' E 023°17'3 2.3
2014-Jul-26 10:25N 37°49' E 023°14'2 1.9
2014-Jul-26 09:33N 37°49' E 023°16'2 2.1
2014-Jul-26 08:33N 37°51' E 023°17'5 4.7
2014-Jul-26 07:33N 37°55' E 023°20'6 5.5
2014-Jul-26 06:33N 37°58' E 023°25'5 5.2
2014-Jul-26 05:33N 38°02' E 023°30'0 0.1
2014-Jul-26 04:31N 38°02' E 023°30'6 5.9
2014-Jul-26 03:34N 37°57' E 023°34'2 0.2
2014-Jul-25 18:26N 37°57' E 023°36'6 7.2
2014-Jul-25 17:33N 38°02' E 023°30'6 6.0
2014-Jul-25 16:31N 37°58' E 023°25'4 4.4
2014-Jul-25 15:31N 37°56' E 023°20'4 1.7
2014-Jul-25 13:23N 37°52' E 023°19'1 0.3
2014-Jul-25 10:11N 37°52' E 023°18'3 4.2
2014-Jul-25 09:33N 37°49' E 023°17'1 0.7
2014-Jul-25 08:33N 37°49' E 023°16'3 2.7
2014-Jul-25 07:33N 37°51' E 023°17'6 6.2
2014-Jul-25 06:30N 37°56' E 023°23'8 0.6
2014-Jul-24 17:33N 38°02' E 023°30'5 4.9
2014-Jul-24 16:29N 37°59' E 023°25'7 5.6
2014-Jul-24 15:13N 37°54' E 023°18'2 2.7
2014-Jul-24 14:26N 37°52' E 023°16'3 1.6
2014-Jul-24 12:19N 37°53' E 023°20'4 5.6
2014-Jul-24 11:33N 37°49' E 023°19'3 2.3
2014-Jul-24 10:15N 37°51' E 023°17'3 2.9
2014-Jul-24 09:19N 37°52' E 023°20'6 7.8
2014-Jul-24 08:31N 37°47' E 023°16'1 1.4
2014-Jul-24 07:28N 37°46' E 023°14'12 6.0
2014-Jul-24 05:29N 37°56' E 023°23'7 7.7
2014-Jul-24 04:32N 38°01' E 023°29'1 1.1
2014-Jul-24 03:33N 38°02' E 023°30'4 3.4
2014-Jul-24 02:29N 37°59' E 023°33'2 0.3
2014-Jul-23 17:34N 37°57' E 023°35'6 6.0
2014-Jul-23 16:33N 38°02' E 023°30'4 3.2
2014-Jul-23 15:15N 37°60' E 023°26'10 6.0
2014-Jul-23 13:32N 37°51' E 023°18'2 2.2
2014-Jul-23 12:31N 37°52' E 023°21'2 1.6
2014-Jul-23 11:34N 37°51' E 023°22'6 2.8
2014-Jul-23 09:31N 37°57' E 023°23'2 2.0
2014-Jul-23 08:33N 37°58' E 023°25'5 5.2
2014-Jul-23 07:34N 38°01' E 023°30'1 0.6
2014-Jul-23 06:33N 38°02' E 023°30'0 0.1
2014-Jul-23 05:30N 38°02' E 023°30'7 0.7
2014-Jul-22 20:25N 37°57' E 023°36'1 0.8
2014-Jul-22 19:33N 37°57' E 023°36'1 0.9
2014-Jul-22 18:34N 37°57' E 023°36'0 0.2
2014-Jul-22 17:33N 37°57' E 023°37'0 0.0
2014-Jul-22 16:33N 37°57' E 023°37'0 0.0
2014-Jul-22 15:33N 37°57' E 023°37'0 0.0
2014-Jul-22 14:32N 37°57' E 023°37'1 1.1
2014-Jul-22 13:33N 37°57' E 023°35'1 0.9
2014-Jul-22 12:25N 37°57' E 023°37'1 1.0
2014-Jul-22 11:32N 37°57' E 023°36'1 0.9
2014-Jul-22 10:33N 37°57' E 023°37'0 0.0
2014-Jul-22 09:33N 37°57' E 023°37'0 0.0
2014-Jul-22 08:34N 37°57' E 023°37'0 0.0
2014-Jul-22 07:33N 37°57' E 023°37'1 0.8
2014-Jul-22 06:33N 37°57' E 023°36'0 0.3
2014-Jul-22 05:33N 37°57' E 023°36'0 0.0
2014-Jul-21 21:33N 37°57' E 023°36'0 0.2
2014-Jul-21 20:34N 37°57' E 023°36'1 2.6
2014-Jul-21 20:18N 37°57' E 023°37'0 0.0
2014-Jul-21 19:33N 37°57' E 023°37'0 0.0
2014-Jul-21 18:34N 37°57' E 023°37'0 0.0
2014-Jul-21 17:33N 37°57' E 023°37'0 0.3
2014-Jul-21 16:33N 37°58' E 023°36'0 0.3
2014-Jul-21 15:33N 37°57' E 023°37'0 0.0
2014-Jul-21 14:33N 37°57' E 023°37'0 0.0
2014-Jul-21 13:33N 37°57' E 023°37'0 0.0
2014-Jul-21 12:34N 37°57' E 023°37'0 0.2
2014-Jul-21 11:33N 37°57' E 023°36'1 0.1
2014-Jul-20 15:22N 37°57' E 023°35'  
Track history (hours):
 
Tides and Currents Weather Stations Pressure Air Temp Water Temp Dewpoint Dewpoint Depression Visibility Wind Speed Wind Dir Waves Ship Positions

Atlas

Last reported at 2014-Jul-29 19:18 UTC. Time now 2014-Jul-30 01:00 UTC.
Position N 37°57' E 023°36'.

Length 29 m; draft 5 m.

Type: Tug. MMSI: 239611000.

Date/timePositionNaut miles runAvg speedWind from/ knotsBaromVisibWave heightAir tempDewpointWater temp
2014-Jul-29 19:18N 37°57' E 023°36'5 6.8
2014-Jul-29 18:33N 38°01' E 023°31'10 4.9
2014-Jul-29 16:26N 37°55' E 023°20'1 0.7
2014-Jul-29 15:12N 37°54' E 023°20'0 0.4
2014-Jul-29 14:19N 37°54' E 023°20'0 0.4
2014-Jul-29 13:19N 37°54' E 023°19'0 0.3
2014-Jul-29 12:29N 37°54' E 023°19'7 7.0
2014-Jul-29 11:32N 37°58' E 023°26'5 5.3
2014-Jul-29 10:33N 38°02' E 023°30'6 0.4
2014-Jul-28 17:30N 37°57' E 023°35'1 0.1
2014-Jul-28 06:33N 37°57' E 023°37'0 0.0
2014-Jul-28 05:33N 37°57' E 023°37'0 0.4
2014-Jul-28 04:33N 37°58' E 023°36'0 0.0
2014-Jul-27 07:23N 37°57' E 023°36'7 0.5
2014-Jul-26 17:33N 38°02' E 023°30'6 5.7
2014-Jul-26 16:33N 37°58' E 023°25'10 8.5
2014-Jul-26 15:26N 37°51' E 023°16'1 0.6
2014-Jul-26 14:33N 37°51' E 023°16'1 1.1
2014-Jul-26 13:32N 37°51' E 023°17'1 0.7
2014-Jul-26 12:22N 37°51' E 023°16'2 1.9
2014-Jul-26 11:33N 37°50' E 023°17'3 2.3
2014-Jul-26 10:25N 37°49' E 023°14'2 1.9
2014-Jul-26 09:33N 37°49' E 023°16'2 2.1
2014-Jul-26 08:33N 37°51' E 023°17'5 4.7
2014-Jul-26 07:33N 37°55' E 023°20'6 5.5
2014-Jul-26 06:33N 37°58' E 023°25'5 5.2
2014-Jul-26 05:33N 38°02' E 023°30'0 0.1
2014-Jul-26 04:31N 38°02' E 023°30'6 5.9
2014-Jul-26 03:34N 37°57' E 023°34'2 0.2
2014-Jul-25 18:26N 37°57' E 023°36'6 7.2
2014-Jul-25 17:33N 38°02' E 023°30'6 6.0
2014-Jul-25 16:31N 37°58' E 023°25'4 4.4
2014-Jul-25 15:31N 37°56' E 023°20'4 1.7
2014-Jul-25 13:23N 37°52' E 023°19'1 0.3
2014-Jul-25 10:11N 37°52' E 023°18'3 4.2
2014-Jul-25 09:33N 37°49' E 023°17'1 0.7
2014-Jul-25 08:33N 37°49' E 023°16'3 2.7
2014-Jul-25 07:33N 37°51' E 023°17'6 6.2
2014-Jul-25 06:30N 37°56' E 023°23'8 0.6
2014-Jul-24 17:33N 38°02' E 023°30'5 4.9
2014-Jul-24 16:29N 37°59' E 023°25'7 5.6
2014-Jul-24 15:13N 37°54' E 023°18'2 2.7
2014-Jul-24 14:26N 37°52' E 023°16'3 1.6
2014-Jul-24 12:19N 37°53' E 023°20'4 5.6
2014-Jul-24 11:33N 37°49' E 023°19'3 2.3
2014-Jul-24 10:15N 37°51' E 023°17'3 2.9
2014-Jul-24 09:19N 37°52' E 023°20'6 7.8
2014-Jul-24 08:31N 37°47' E 023°16'1 1.4
2014-Jul-24 07:28N 37°46' E 023°14'12 6.0
2014-Jul-24 05:29N 37°56' E 023°23'7 7.7
2014-Jul-24 04:32N 38°01' E 023°29'1 1.1
2014-Jul-24 03:33N 38°02' E 023°30'4 3.4
2014-Jul-24 02:29N 37°59' E 023°33'2 0.3
2014-Jul-23 17:34N 37°57' E 023°35'6 6.0
2014-Jul-23 16:33N 38°02' E 023°30'4 3.2
2014-Jul-23 15:15N 37°60' E 023°26'10 6.0
2014-Jul-23 13:32N 37°51' E 023°18'2 2.2
2014-Jul-23 12:31N 37°52' E 023°21'2 1.6
2014-Jul-23 11:34N 37°51' E 023°22'6 2.8
2014-Jul-23 09:31N 37°57' E 023°23'2 2.0
2014-Jul-23 08:33N 37°58' E 023°25'5 5.2
2014-Jul-23 07:34N 38°01' E 023°30'1 0.6
2014-Jul-23 06:33N 38°02' E 023°30'0 0.1
2014-Jul-23 05:30N 38°02' E 023°30'7 0.7
2014-Jul-22 20:25N 37°57' E 023°36'1 0.8
2014-Jul-22 19:33N 37°57' E 023°36'1 0.9
2014-Jul-22 18:34N 37°57' E 023°36'0 0.2
2014-Jul-22 17:33N 37°57' E 023°37'0 0.0
2014-Jul-22 16:33N 37°57' E 023°37'0 0.0
2014-Jul-22 15:33N 37°57' E 023°37'0 0.0
2014-Jul-22 14:32N 37°57' E 023°37'1 1.1
2014-Jul-22 13:33N 37°57' E 023°35'1 0.9
2014-Jul-22 12:25N 37°57' E 023°37'1 1.0
2014-Jul-22 11:32N 37°57' E 023°36'1 0.9
2014-Jul-22 10:33N 37°57' E 023°37'0 0.0
2014-Jul-22 09:33N 37°57' E 023°37'0 0.0
2014-Jul-22 08:34N 37°57' E 023°37'0 0.0
2014-Jul-22 07:33N 37°57' E 023°37'1 0.8
2014-Jul-22 06:33N 37°57' E 023°36'0 0.3
2014-Jul-22 05:33N 37°57' E 023°36'0 0.0
2014-Jul-21 21:33N 37°57' E 023°36'0 0.2
2014-Jul-21 20:34N 37°57' E 023°36'1 2.6
2014-Jul-21 20:18N 37°57' E 023°37'0 0.0
2014-Jul-21 19:33N 37°57' E 023°37'0 0.0
2014-Jul-21 18:34N 37°57' E 023°37'0 0.0
2014-Jul-21 17:33N 37°57' E 023°37'0 0.3
2014-Jul-21 16:33N 37°58' E 023°36'0 0.3
2014-Jul-21 15:33N 37°57' E 023°37'0 0.0
2014-Jul-21 14:33N 37°57' E 023°37'0 0.0
2014-Jul-21 13:33N 37°57' E 023°37'0 0.0
2014-Jul-21 12:34N 37°57' E 023°37'0 0.2
2014-Jul-21 11:33N 37°57' E 023°36'1 0.1
2014-Jul-20 15:22N 37°57' E 023°35'  

Dump ship's entire track history